Regional Weather Roundup
Issued by NWS

Home | Current Version | Previous Version | Graphics & Text | Print | Product List | Glossary Off
Versions: 1 2 3 4 5 6 7 8 9 10 11 12 13 14 15 16 17 18 19 20 21 22 23 24 25 26 27 28 29 30 31 32 33 34 35 36 37 38 39 40 41 42 43 44 45 46 47 48 49 50

492
ASUS43 KMKX 291611
RWRWI

WISCONSIN REGIONAL WEATHER ROUNDUP
NATIONAL WEATHER SERVICE MILWAUKEE/SULLIVAN WI
1100 AM CDT SUN MAY 29 2016

NOTE: "FAIR" INDICATES FEW OR NO CLOUDS BELOW 12,000 FEET WITH NO
SIGNIFICANT WEATHER AND/OR OBSTRUCTIONS TO VISIBILITY.

WIZ001-002-006>008-014>016-023>028-291700-
NORTHWEST WISCONSIN

CITY           SKY/WX    TMP DP  RH WIND       PRES   REMARKS
SUPERIOR ARPT  CLOUDY    65  58  79 W8        29.84R
ASHLAND        CLOUDY    64  59  83 SW8       29.83S
HAYWARD        CLOUDY    62  59  90 CALM      29.87S
SIREN          CLOUDY    64  57  78 W12       29.90R
CUMBERLAND     CLOUDY    61  59  94 W9        29.91R
RICE LAKE      CLOUDY    64  58  78 SW9       29.91S
CHETEK         CLOUDY    65  60  85 W9G16     29.90S
LADYSMITH      LGT RAIN  64  60  89 W6        29.90R
EAU CLAIRE     CLOUDY    66  61  84 W17G23    29.91R
MENOMONIE      CLOUDY    65  65 100 W14G21    29.92R
NEW RICHMOND   CLOUDY    66  61  82 NW13      29.93R
OSCEOLA        CLOUDY    66  65  95 W10       29.95R
$$

WIZ003>005-009-010-017-018-291700-
NORTH CENTRAL WISCONSIN

CITY           SKY/WX    TMP DP  RH WIND       PRES   REMARKS
MANITOWISH WTR NOT AVBL
ARBOR VITAE    CLOUDY    63  59  87 W8G16     29.86R
WOODRUFF       CLOUDY    63  59  87 W8G16     29.86R
RHINELANDER    CLOUDY    67  58  72 W13       29.86S
EAGLE RIVER      N/A     65  60  84 W13       29.84S
LAND O LAKES   CLOUDY    64  62  91 SW8       29.84S
PHILLIPS       RAIN      60  58  93 W8        29.87R
TOMAHAWK       CLOUDY    64  57  77 W8        29.88R
MEDFORD        CLOUDY    64  61  91 W10       29.89R
MERRILL        CLOUDY    65  60  83 W15       29.88S
$$

WIZ029-030-035-036-043>047-291700-
CENTRAL WISCONSIN

CITY           SKY/WX    TMP DP  RH WIND       PRES   REMARKS
WAUSAU         CLOUDY    68  59  73 W10G21    29.86S
MOSINEE        CLOUDY    66  63  88 W12G18    29.90R
MARSHFIELD     CLOUDY    67  58  72 W17G24    29.90R
STEVENS POINT  CLOUDY    65  59  80 W12       29.90R
WAUPACA        CLOUDY    69  66  90 W12G17    29.90R
WAUTOMA        PTSUNNY   69  63  81 W17       29.92R
WISC RAPIDS    CLOUDY    68  57  68 NW16G23   29.92R
CAMP DOUGLAS   PTSUNNY   68  61  77 W14G22    29.94R
$$

WIZ011>013-019>022-031-037>040-048>050-291700-
NORTHEAST WISCONSIN

CITY           SKY/WX    TMP DP  RH WIND       PRES   REMARKS
ANTIGO         CLOUDY    64  61  91 W12       29.88R
SHAWANO        DRIZZLE   69  62  77 SW14G20   29.87R
OCONTO         CLOUDY    70  63  79 SW10G17   29.85R
STURGEON BAY   NOT AVBL
GREEN BAY      PTSUNNY   68  62  81 SW13      29.87S
MANITOWOC      CLOUDY    70  60  70 SW20G28   29.90R
APPLETON       CLOUDY    66  64  94 SW16      29.88S
CLINTONVILLE   HVY RAIN  64  61  88 W9        29.88R
OSHKOSH        PTSUNNY   70  61  73 VRB7G20   29.90R
$$

WIZ032>034-041-042-053>061-291700-
SOUTHWEST WISCONSIN

CITY           SKY/WX    TMP DP  RH WIND       PRES   REMARKS
LA CROSSE      CLOUDY    70  59  68 W15       29.95R
SPARTA         CLOUDY    68  60  74 W10G17    29.95R
VIROQUA        CLOUDY    68  58  71 W13G20    29.98R
BOSCOBEL       PTSUNNY   75  61  61 W10       29.98R
PRAIRIE DU CHI MOSUNNY   73  58  59 W9        29.99S
PLATTEVILLE    PTSUNNY   71  61  71 W16G23    30.02R
$$

WIZ056-057-062-063-064-067-068-291700-
SOUTH CENTRAL WISCONSIN

CITY           SKY/WX    TMP DP  RH WIND       PRES   REMARKS
REEDSBURG      CLOUDY    69  59  70 W14       29.95R
BARABOO/DELLS  PTSUNNY   69  56  63 W13G23    29.96R
LONE ROCK      PTSUNNY   72  60  66 W12       29.98R
MINERAL POINT  PTSUNNY   72  61  68 W13       30.01R
MADISON        PTSUNNY   71  59  65 W10G18    29.96R
MIDDLETON      PTSUNNY   71  61  68 W15G21    29.97S
WATERTOWN      CLOUDY    69  62  78 SW13G18   29.96R
MONROE         PTSUNNY   70  57  64 W25       30.00R
JANESVILLE     PTSUNNY   72  61  68 SW13G21   29.98S
$$

WIZ051-052-058>065-066-070>072-291700-
SOUTHEAST WISCONSIN

CITY           SKY/WX    TMP DP  RH WIND       PRES   REMARKS
MILWAUKEE      PTSUNNY   72  59  63 SW17G26   29.97R
WAUKESHA       CLOUDY    68  59  73 SW15      29.98R
MILWAUKEE/TIMM PTSUNNY   70  57  64 SW16      29.97R
RACINE         CLOUDY    73  59  61 SW14G24   29.99R
BURLINGTON     PTSUNNY   69  58  68 W14G21    29.99R
KENOSHA        PTSUNNY   71  60  68 SW17G28   29.99R
FOND DU LAC    PTSUNNY   71  62  73 SW14G23   29.92R
SHEBOYGAN      CLOUDY    71  61  70 SW16G23   29.92R
WEST BEND      CLOUDY    68  59  73 SW12G17   29.95R
JUNEAU         PTSUNNY   69  62  77 SW15      29.96S
$$

LSZ147-162-291700-
LAKE SUPERIOR

STATION/POSITION TIME  TEMP    WIND        PRES    WAVE
                       AIR SEA DIR/SP/G            HT/PER
                 (UTC) (F)     (DEG/KT/KT) (MB)    (FT/S)
W MID LAKE BUOY  1550   41 38  210/  6/  6 1009.0S   0
DEVILS ISLAND    1600   55     230/ 14/ 16 1008.9F
PORT WING        1600   63     250/ 12/ 16 1010.2R
SAXON HARBOR     1500   63     230/  6/ 10 1009.5
$$

LMZ867-665-643>646-291700-
LAKE MICHIGAN

STATION/POSITION TIME  TEMP    WIND        PRES    WAVE
                       AIR SEA DIR/SP/G            HT/PER
                 (UTC) (F)     (DEG/KT/KT) (MB)    (FT/S)
CHAMBERS ISLAND  1500   69     190/  7/ 15 1010.8
N MID LAKE BUOY  1550   49 47  190/ 14/ 16 1011.4S   2/ 4
NORTHPORT PIER   1500   58     140/  8/ 10 1011.2F
SISTER BAY       1505   72     160/  9/ 10   N/A
ALGOMA LAKESHORE 1517          220/  9/ 11   N/A
KEWAUNEE LAKESHO 1500   52     170/ 12/ 15 1011.3F
SHEBOYGAN LAKESH 1600   70     230/ 19/ 23 1013.3R
PORT WASHINGTON  1500   72     240/  8/ 21 1013.9
S MID LAKE BUOY  1550   54 50  180/ 12/ 12 1015.0R   1/ 3
KENOSHA   LAKESH 1600   73     230/ 15/ 22 1014.9R
$$

TC  - TEMPERATURE IN CELSIUS
VSB - VISIBILITY IN STATUTE MILES
WCI - WIND CHILL INDEX
HX  - HEAT INDEX





USA.gov is the U.S. government's official web portal to all federal, state and local government web resources and services.